Location: Kvarnån
(66.4000°N, 22.2667°E)
Time: 19:55:11
(UTC+00:00)

Cosmos 2360 Rocket - Pass Details

Date: 15 October 2024
Orbit: 834 x 843 km, 71.0° (Epoch: 05 November)

Event Time Altitude Azimuth Distance (km) Brightness Sun altitude
Rises 19:29:46 0° 316° (NW) 3,398 6.7 -25.9°
Reaches altitude 10° 19:32:39 10° 303° (WNW) 2,460 5.6 -26.1°
Maximum altitude 19:36:59 23° 253° (WSW) 1,701 4.0 -26.5°
Enters shadow 19:39:29 17° 218° (SW) 1,986 4.0 -26.6°
